Stations météo

réclame
Mon MeteoGroup
L9F, Pays-Bas (6207): Température de l'air & dewpoint: 16.07.2019 05:00:00 - 22.07.2019 05:00:00 (CEST)L9F, Pays-Bas (6207): Vitesse du vent & gusts: 16.07.2019 05:00:00 - 22.07.2019 05:00:00 (CEST)L9F, Pays-Bas (6207): Direction du vent: 16.07.2019 05:00:00 - 22.07.2019 05:00:00 (CEST)L9F, Pays-Bas (6207): reduced air pressure: 16.07.2019 05:00:00 - 22.07.2019 05:00:00 (CEST)L9F, Pays-Bas (6207): visibility: 16.07.2019 05:00:00 - 22.07.2019 05:00:00 (CEST)
Date & Time tt [°C] td [°C] ff [km/h] ff [knt] fx [km/h] fx [knt] dd ppp [hPa] vv [km]
22.07.2019 05:00:00 18,2 15,6 42 23 43 23 SSW 1020,6 10
22.07.2019 04:00:00 18,1 15,2 41 22 40 21 SSW 1021,2 10
22.07.2019 03:00:00 17,9 15,2 39 21 40 21 SSW 1021,6 10
22.07.2019 02:00:00 17,7 15,0 34 18 32 18 SSW 1022,2 10
22.07.2019 01:00:00 17,7 14,4 31 17 32 18 SSW 1022,5 10
22.07.2019 00:00:00 17,6 14,3 29 16 29 16 SW 1022,5 10
21.07.2019 23:00:00 17,5 14,6 28 15 25 14 SW 1022,5 10
21.07.2019 22:00:00 17,2 14,7 22 12 22 12 SSW 1022,5 10
21.07.2019 21:00:00 17,2 14,1 21 11 22 12 SW 1022,3 10
21.07.2019 20:00:00 17,0 13,8 21 11 22 12 SW 1022,4 10
21.07.2019 19:00:00 17,1 13,8 24 13 25 14 WSW 1022,4 10
21.07.2019 18:00:00 17,1 13,5 24 13 25 14 WSW 1022,3 10
21.07.2019 17:00:00 16,8 13,9 29 16 29 16 WSW 1022,0 10
21.07.2019 16:00:00 16,8 13,1 29 16 29 16 WSW 1021,5 10
21.07.2019 15:00:00 16,5 12,6 28 15 29 16 WSW 1021,2 10
21.07.2019 14:00:00 16,4 12,7 28 15 32 18 W 1020,8 10
21.07.2019 13:00:00 16,4 12,8 34 18 32 18 W 1020,5 10
21.07.2019 12:00:00 16,2 13,0 29 16 29 16 WSW 1019,7 10
21.07.2019 11:00:00 16,2 13,1 29 16 29 16 W 1018,9 10
21.07.2019 10:00:00 16,3 13,4 29 16 29 16 W 1018,0 10
21.07.2019 09:00:00 16,3 13,4 31 17 29 16 W 1017,0 10
21.07.2019 08:00:00 16,5 13,4 29 16 32 18 W 1016,3 10
21.07.2019 07:00:00 16,6 13,3 31 17 32 18 W 1015,5 10
21.07.2019 06:00:00 16,8 13,4 31 17 32 18 W 1014,5 10
21.07.2019 05:00:00 16,9 13,5 31 17 36 19 W 1013,8 10
21.07.2019 04:00:00 17,2 13,7 37 20 40 21 W 1013,2 10
21.07.2019 03:00:00 17,4 13,6 41 22 43 23 W 1012,4 10
21.07.2019 02:00:00 17,7 13,6 42 23 43 23 W 1012,0 10
21.07.2019 01:00:00 17,7 15,3 39 21 40 21 WSW 1011,8 10
21.07.2019 00:00:00 17,7 15,6 37 20 36 19 WSW 1011,3 10
20.07.2019 23:00:00 17,9 16,0 35 19 36 19 WSW 1010,7 10
20.07.2019 22:00:00 17,8 16,6 42 23 43 23 WSW 1010,1 10
20.07.2019 21:00:00 17,8 16,7 42 23 43 23 SW 1009,4 10
20.07.2019 20:00:00 18,2 16,8 46 25 43 23 SW 1009,1 10
20.07.2019 19:00:00 18,2 16,9 44 24 50 27 SW 1008,9 10
20.07.2019 18:00:00 18,5 17,3 48 26 47 25 SW 1008,4 10
20.07.2019 17:00:00 18,2 17,1 39 21 47 25 SSW 1008,7 10
20.07.2019 16:00:00 17,7 17,2 32 18 - - SSW 1009,0 12
20.07.2019 15:00:00 17,7 17,2 32 18 43 23 SSW 1009,0 12
20.07.2019 14:00:00 18,1 16,4 46 25 47 25 SSW 1009,0 10
20.07.2019 13:00:00 17,9 16,3 46 25 43 23 SSW 1008,6 10
20.07.2019 12:00:00 17,7 16,9 37 20 40 21 SSW 1008,7 10
20.07.2019 11:00:00 17,4 16,6 37 20 36 19 SSW 1008,4 10
20.07.2019 10:00:00 17,1 16,4 34 18 40 21 SSW 1008,0 10
20.07.2019 09:00:00 16,9 16,4 37 20 43 23 S 1008,0 -
20.07.2019 08:00:00 16,7 16,3 34 18 43 23 S 1007,9 5
20.07.2019 07:00:00 18,6 16,1 44 24 50 27 S 1008,9 10
20.07.2019 06:00:00 18,4 15,9 31 17 36 19 S 1008,5 10
20.07.2019 05:00:00 18,1 15,8 26 14 36 19 SSE 1009,3 10
20.07.2019 04:00:00 18,0 15,7 44 24 47 25 S 1010,0 10
20.07.2019 03:00:00 17,8 15,6 44 24 43 23 S 1010,5 10
20.07.2019 02:00:00 17,3 16,0 35 19 43 23 S 1010,9 10
20.07.2019 01:00:00 17,2 15,9 46 25 50 27 S 1011,7 10
20.07.2019 00:00:00 18,0 15,2 39 21 43 23 S 1012,1 10
19.07.2019 23:00:00 18,2 14,7 39 21 40 21 S 1012,6 10
19.07.2019 22:00:00 18,0 14,7 31 17 32 18 S 1012,8 10
19.07.2019 21:00:00 17,8 14,3 28 15 29 16 S 1012,8 10
19.07.2019 20:00:00 17,7 14,5 22 12 25 14 SSW 1013,1 10
19.07.2019 19:00:00 17,9 14,0 26 14 25 14 SW 1013,3 10
19.07.2019 18:00:00 17,9 15,4 22 12 22 12 SW 1013,5 10
19.07.2019 17:00:00 18,0 16,2 21 11 22 12 SW 1013,1 10
19.07.2019 16:00:00 18,6 15,3 22 12 25 14 S 1013,5 10
19.07.2019 15:00:00 18,6 15,2 26 14 25 14 S 1014,0 10
19.07.2019 14:00:00 18,0 15,1 21 11 22 12 SSW 1013,8 10
19.07.2019 13:00:00 17,8 14,6 22 12 22 12 S 1013,6 10
19.07.2019 12:00:00 17,3 14,9 21 11 22 12 S 1013,7 10
19.07.2019 11:00:00 17,1 14,6 24 13 22 12 SSW 1013,7 10
19.07.2019 10:00:00 17,0 14,1 21 11 22 12 SSW 1013,5 10
19.07.2019 09:00:00 16,7 13,8 15 8 14 8 SSW 1013,2 10
19.07.2019 08:00:00 16,7 13,4 13 7 14 8 SW 1013,0 10
19.07.2019 07:00:00 16,6 13,2 11 6 11 6 SW 1012,8 10
19.07.2019 06:00:00 16,6 13,2 9 5 11 6 SW 1012,5 10
19.07.2019 05:00:00 16,4 13,7 8 4 14 8 WSW 1012,4 10
19.07.2019 04:00:00 16,2 14,2 9 5 14 8 - 1012,4 10
19.07.2019 03:00:00 16,3 13,8 13 7 14 8 W 1012,0 10
19.07.2019 02:00:00 16,0 14,2 16 9 22 12 - 1011,8 10
19.07.2019 01:00:00 16,1 14,6 21 11 22 12 WNW 1011,4 10
19.07.2019 00:00:00 16,1 14,7 24 13 25 14 WNW 1011,2 10
18.07.2019 23:00:00 16,3 15,6 24 13 25 14 WNW 1010,8 10
18.07.2019 22:00:00 16,2 16,1 22 12 25 14 SW 1010,5 10
18.07.2019 21:00:00 15,9 15,3 28 15 32 18 SSW 1010,2 10
18.07.2019 20:00:00 15,9 14,8 31 17 32 18 SSW 1010,2 10
18.07.2019 19:00:00 15,8 14,9 26 14 32 18 SW 1010,4 8
18.07.2019 18:00:00 16,5 15,2 28 15 32 18 SW 1010,5 10
18.07.2019 17:00:00 16,8 15,3 37 20 36 19 WSW 1010,5 6
18.07.2019 16:00:00 17,2 16,2 41 22 40 21 SW 1010,4 10
18.07.2019 15:00:00 17,4 16,1 34 18 36 19 SSW 1010,3 10
18.07.2019 14:00:00 17,4 16,0 37 20 36 19 SSW 1010,3 10
18.07.2019 13:00:00 17,6 16,1 42 23 43 23 SW 1010,3 10
18.07.2019 12:00:00 18,1 15,1 35 19 36 19 SSW 1010,0 10
18.07.2019 11:00:00 18,2 15,8 41 22 36 19 S 1009,9 10
18.07.2019 10:00:00 18,3 15,5 39 21 36 19 S 1009,9 10
18.07.2019 09:00:00 18,1 15,6 37 20 40 21 S 1010,2 10
18.07.2019 08:00:00 18,0 15,7 41 22 40 21 S 1010,4 10
18.07.2019 07:00:00 18,0 15,2 39 21 40 21 S 1010,5 10
18.07.2019 06:00:00 17,9 15,1 41 22 40 21 S 1010,8 10
18.07.2019 05:00:00 17,6 15,4 39 21 36 19 S 1011,1 10
18.07.2019 04:00:00 17,4 15,3 35 19 32 18 SSE 1011,4 10
18.07.2019 03:00:00 17,4 15,7 37 20 36 19 SSE 1012,0 10
18.07.2019 02:00:00 17,5 16,1 34 18 29 16 SSE 1012,8 10
18.07.2019 01:00:00 17,5 16,2 29 16 29 16 SSE 1013,0 10
18.07.2019 00:00:00 17,3 15,9 26 14 25 14 SSE 1013,3 10
17.07.2019 23:00:00 17,2 15,7 16 9 18 10 SE 1013,7 10
17.07.2019 22:00:00 17,4 16,0 13 7 14 8 SE 1013,9 8
17.07.2019 21:00:00 17,6 15,4 8 4 11 6 S 1014,1 10
17.07.2019 20:00:00 18,1 15,3 9 5 11 6 SSW 1014,3 10
17.07.2019 19:00:00 18,1 15,6 11 6 11 6 SW 1014,6 10
17.07.2019 18:00:00 17,5 15,1 11 6 14 8 SSW 1015,0 10
17.07.2019 17:00:00 17,4 15,0 15 8 14 8 SW 1015,5 9
17.07.2019 16:00:00 17,0 14,8 15 8 18 10 SSW 1015,9 10
17.07.2019 15:00:00 16,9 14,2 18 10 18 10 SSW 1016,0 10
17.07.2019 14:00:00 16,5 13,7 21 11 22 12 SSW 1016,4 10
17.07.2019 13:00:00 15,9 13,3 21 11 22 12 SSW 1016,7 10
17.07.2019 12:00:00 15,4 13,2 18 10 22 12 S 1016,8 10
17.07.2019 11:00:00 16,8 13,3 18 10 22 12 S 1016,9 10
17.07.2019 10:00:00 15,2 12,5 16 9 18 10 SSE 1016,8 10
17.07.2019 09:00:00 15,1 12,4 11 6 14 8 SSE 1017,1 10
17.07.2019 08:00:00 15,0 12,3 5 3 7 4 - 1017,0 10
17.07.2019 07:00:00 14,8 12,4 8 4 11 6 S 1017,1 10
17.07.2019 06:00:00 14,8 12,5 8 4 18 10 SW 1017,3 10
17.07.2019 05:00:00 14,5 12,6 9 5 18 10 W 1017,4 10
17.07.2019 04:00:00 14,0 12,7 9 5 14 8 WSW 1017,6 10
17.07.2019 03:00:00 14,0 12,6 4 2 14 8 - 1018,0 10
17.07.2019 02:00:00 14,1 13,1 8 4 22 12 - 1018,3 10
17.07.2019 01:00:00 14,3 12,7 8 4 22 12 WSW 1018,5 10
17.07.2019 00:00:00 14,5 12,6 8 4 25 14 - 1018,6 10
16.07.2019 23:00:00 14,6 12,6 8 4 25 14 W 1018,7 10
16.07.2019 22:00:00 14,4 12,7 11 6 25 14 - 1018,7 10
16.07.2019 21:00:00 14,5 12,6 15 8 25 14 WNW 1018,8 10
16.07.2019 20:00:00 14,4 12,5 16 9 25 14 NW 1018,9 10
16.07.2019 19:00:00 14,3 12,7 15 8 25 14 - 1019,0 10
16.07.2019 18:00:00 14,3 12,4 16 9 25 14 - 1019,0 10
16.07.2019 17:00:00 14,4 12,6 11 6 25 14 WNW 1019,1 10
16.07.2019 16:00:00 14,5 12,4 18 10 25 14 WNW 1019,3 10
16.07.2019 15:00:00 14,3 12,4 18 10 25 14 WNW 1019,3 10
16.07.2019 14:00:00 14,3 12,0 21 11 25 14 NW 1019,5 10
16.07.2019 13:00:00 14,1 12,0 18 10 22 12 WNW 1019,5 10
16.07.2019 12:00:00 14,1 12,1 22 12 25 14 WNW 1019,5 10
16.07.2019 11:00:00 13,9 12,0 21 11 25 14 WNW 1019,4 10
16.07.2019 10:00:00 13,9 12,1 22 12 25 14 WNW 1019,4 10
16.07.2019 09:00:00 13,7 11,9 22 12 29 16 WNW 1019,4 10
16.07.2019 08:00:00 13,9 11,9 24 13 32 18 NW 1019,3 10
16.07.2019 07:00:00 13,9 11,9 24 13 29 16 WNW 1019,3 10
16.07.2019 06:00:00 13,7 11,3 24 13 29 16 WNW 1019,3 10
16.07.2019 05:00:00 13,8 11,3 26 14 32 18 NW 1019,4 10

tt = Température de l'air
td = dewpoint
ff = Vitesse du vent
fx = gusts
dd = Direction du vent
ppp = reduced air pressure
vv = visibility

stations d'obs. à proximité